Bridgeport, WV

6:12 AM EDT on August 30, 2016 (GMT -0400)
Benedum

Weather History for KCKB - December, 2013

Change the Weather History Date:

Tuesday, December 31, 2013

  Actual Average Record
Temperature  
Mean Temperature 26 °F -  
Max Temperature 28 °F 40 °F 69 °F (1965)
Min Temperature 24 °F 24 °F -7 °F (1935)
Degree Days  
Heating Degree Days 39    
Moisture  
Dew Point 19 °F    
Average Humidity 71    
Maximum Humidity 86    
Minimum Humidity 59    
Precipitation  
Precipitation 0.00 in - - ()
Sea Level Pressure  
Sea Level Pressure 30.23 in    
Wind  
Wind Speed 9 mph (SW)    
Max Wind Speed 20 mph    
Max Gust Speed 28 mph    
Visibility 8 miles    
Events Snow    
Averages and records for this station are not official NWS values.
T = Trace of Precipitation, MM = Missing Value Source: NWS Daily Summary

Daily Weather History Graph

Daily Weather History Graph

Search for Another Location

Airport or City:

Trip Planner

Search our weather history database for the weather conditions in past years. The results will help you decide how hot, cold, wet, or windy it might be!

Date:

Astronomy

Dec. 31, 2013 Rise Set
Actual Time 7:40 AM EST 5:07 PM EST
Civil Twilight 7:10 AM EST 5:37 PM EST
Nautical Twilight 6:36 AM EST 6:11 PM EST
Astronomical Twilight 6:04 AM EST 6:43 PM EST
Moon 6:32 AM EST (12/31) 4:41 PM EST (12/31)
Length of Visible Light 10h 27m
Length of Day
9h 27m
Waning Crescent, 1% of the Moon is Illuminated
Dec 31
Waning Crescent
Jan 1
New
Jan 7
First Quarter
Jan 15
Full
Jan 24
Last Quarter

Hourly Weather History & Observations

Time (EST) Temp. Windchill Dew Point Humidity Pressure Visibility Wind Dir Wind Speed Gust Speed Precip Events Conditions
12:32 AM 28.4 °F 24.6 °F 23.0 °F 80% 30.12 in 10.0 mi WSW 3.5 mph - 0.00 in   Overcast
12:48 AM 28.4 °F 23.3 °F 24.8 °F 86% 30.11 in 6.0 mi SSW 4.6 mph - 0.00 in Snow Light Snow
12:53 AM 28.9 °F 23.9 °F 24.1 °F 82% 30.13 in 7.0 mi SSW 4.6 mph - 0.00 in Snow Light Snow
1:37 AM 28.4 °F 20.4 °F 24.8 °F 86% 30.10 in 10.0 mi SW 8.1 mph - 0.00 in   Overcast
1:53 AM 28.9 °F 22.8 °F 24.1 °F 82% 30.12 in 10.0 mi SW 5.8 mph - 0.00 in   Overcast
2:08 AM 28.4 °F 19.1 °F 24.8 °F 86% 30.11 in 10.0 mi SW 10.4 mph - N/A   Overcast
2:53 AM 28.9 °F 17.7 °F 21.9 °F 75% 30.14 in 10.0 mi WSW 15.0 mph 21.9 mph N/A   Overcast
3:53 AM 28.9 °F 19.8 °F 21.0 °F 72% 30.13 in 10.0 mi WSW 10.4 mph - N/A   Mostly Cloudy
4:53 AM 28.0 °F 18.6 °F 23.0 °F 81% 30.12 in 10.0 mi SW 10.4 mph - 0.00 in   Overcast
5:11 AM 28.4 °F 20.4 °F 21.2 °F 74% 30.11 in 10.0 mi WSW 8.1 mph - N/A   Overcast
5:53 AM 28.0 °F 18.1 °F 21.9 °F 78% 30.14 in 5.0 mi WSW 11.5 mph - 0.00 in Snow Light Snow
6:15 AM 28.4 °F 18.5 °F 21.2 °F 74% 30.13 in 5.0 mi SW 11.5 mph - 0.00 in Snow Light Snow
6:53 AM 28.0 °F 18.1 °F 19.0 °F 69% 30.13 in 10.0 mi SW 11.5 mph - 0.00 in   Overcast
7:53 AM 28.0 °F 18.1 °F 19.0 °F 69% 30.13 in 10.0 mi SW 11.5 mph - N/A   Overcast
8:53 AM 28.0 °F 17.5 °F 19.0 °F 69% 30.16 in 10.0 mi WSW 12.7 mph 26.5 mph N/A   Overcast
9:53 AM 28.0 °F 15.3 °F 18.0 °F 66% 30.21 in 10.0 mi WSW 18.4 mph 25.3 mph N/A   Overcast
10:53 AM 28.0 °F 18.1 °F 17.1 °F 63% 30.23 in 10.0 mi WSW 11.5 mph 27.6 mph N/A   Overcast
11:53 AM 28.0 °F 14.9 °F 18.0 °F 66% 30.27 in 8.0 mi West 19.6 mph 25.3 mph 0.00 in Snow Light Snow
12:24 PM 26.6 °F 14.7 °F 17.6 °F 69% 30.26 in 3.0 mi West 15.0 mph 26.5 mph 0.00 in Snow Light Snow
12:37 PM 26.6 °F 16.2 °F 17.6 °F 69% 30.26 in 2.5 mi WSW 11.5 mph 25.3 mph 0.00 in Snow Light Snow
12:53 PM 27.0 °F 17.3 °F 19.0 °F 72% 30.30 in 2.5 mi West 10.4 mph 21.9 mph 0.00 in Snow Light Snow
1:08 PM 26.6 °F 16.8 °F 19.4 °F 74% 30.27 in 2.0 mi WSW 10.4 mph - 0.00 in Snow Light Snow
1:34 PM 26.6 °F 14.3 °F 19.4 °F 74% 30.27 in 2.0 mi SW 16.1 mph 20.7 mph 0.00 in Snow Light Snow
1:53 PM 27.0 °F 16.1 °F 18.0 °F 69% 30.29 in 2.0 mi SW 12.7 mph 23.0 mph 0.00 in Snow Light Snow
2:00 PM 28.4 °F 18.5 °F 17.6 °F 64% 30.27 in 7.0 mi WSW 11.5 mph - 0.00 in Snow Light Snow
2:17 PM 28.4 °F 17.5 °F 17.6 °F 64% 30.27 in 10.0 mi West 13.8 mph - 0.00 in   Overcast
2:34 PM 28.4 °F 17.5 °F 15.8 °F 59% 30.27 in 10.0 mi WSW 13.8 mph - 0.00 in   Overcast
2:53 PM 28.0 °F 19.3 °F 16.0 °F 61% 30.30 in 10.0 mi West 9.2 mph - 0.00 in   Overcast
3:53 PM 28.0 °F 17.5 °F 16.0 °F 61% 30.32 in 10.0 mi WSW 12.7 mph - N/A   Overcast
4:53 PM 27.0 °F 18.7 °F 16.0 °F 63% 30.33 in 10.0 mi WSW 8.1 mph - N/A   Mostly Cloudy
5:53 PM 26.1 °F 17.6 °F 15.1 °F 63% 30.34 in 10.0 mi SW 8.1 mph - N/A   Clear
6:53 PM 25.0 °F 18.1 °F 16.0 °F 69% 30.34 in 10.0 mi SW 5.8 mph - N/A   Scattered Clouds
7:53 PM 25.0 °F 18.1 °F 16.0 °F 69% 30.34 in 10.0 mi South 5.8 mph - N/A   Scattered Clouds
8:53 PM 25.0 °F 20.7 °F 16.0 °F 69% 30.34 in 10.0 mi South 3.5 mph - N/A   Clear
9:53 PM 24.1 °F 19.7 °F 16.0 °F 71% 30.35 in 10.0 mi South 3.5 mph - N/A   Clear
10:53 PM 25.0 °F 18.1 °F 17.1 °F 72% 30.34 in 10.0 mi South 5.8 mph - N/A   Partly Cloudy
11:53 PM 24.1 °F 19.7 °F 17.1 °F 75% 30.33 in 10.0 mi SSW 3.5 mph - N/A   Clear